Location: Cedar Falls
(42.5280°N, 92.4450°W)
Time: 22:22:37
(UTC-05:00)

NOSS 3-1 (C) - Visible Passes

Search period start: 17 April 2015 00:00
Search period end: 27 April 2015 00:00
Orbit: 882 x 1327 km, 63.4° (Epoch: 19 March)

Date Brightness Start Highest point End Pass type
(mag) Time Alt. Az. Time Alt. Az. Time Alt. Az.
17 Apr 4.8 04:55:30 10° S 05:00:49 35° ESE 05:06:38 10° NE visible
18 Apr 5.4 04:11:42 10° SSE 04:15:56 21° ESE 04:20:35 10° ENE visible
19 Apr 5.8 03:29:36 10° ESE 03:31:08 11° ESE 03:33:07 10° E visible
19 Apr 3.6 05:14:53 10° SSW 05:20:51 77° ESE 05:27:28 10° NE visible
20 Apr 4.2 04:31:23 17° S 04:35:46 47° ESE 04:41:59 10° NE visible
21 Apr 4.9 03:47:49 18° SSE 03:50:49 28° ESE 03:56:12 10° NE visible
21 Apr 3.8 05:35:20 10° SW 05:41:17 55° NW 05:47:51 10° NNE visible
22 Apr 5.4 03:04:13 14° SE 03:05:58 16° ESE 03:09:47 10° ENE visible
22 Apr 3.5 04:51:37 20° SW 04:55:56 84° NW 05:02:37 10° NE visible
23 Apr 3.7 04:07:57 32° S 04:10:46 62° ESE 04:17:14 10° NE visible
24 Apr 4.4 03:24:14 32° SE 03:25:45 37° ESE 03:31:39 10° NE visible
24 Apr 4.1 05:11:38 15° WSW 05:16:31 44° NW 05:22:55 10° NNE visible
25 Apr 5.0 02:40:27 22° ESE 02:40:51 22° ESE 02:45:39 10° ENE visible
25 Apr 3.6 04:27:51 29° SW 04:31:04 67° NW 04:37:44 10° NNE visible
26 Apr 5.7 01:56:39 12° E 01:56:39 12° E 01:58:29 10° E visible
26 Apr 3.4 03:44:02 49° SSW 03:45:48 80° SE 03:52:26 10° NE visible
26 Apr 4.9 05:32:20 10° W 05:37:33 26° NNW 05:43:07 10° NNE visible
